DW4685 Weather Reports


time (UTC)temp
C
wind
direction
speed
KPH
gust
KPH
rain 1hr
cm
rain 24hr
cm
rain mn
cm
humidity
%
barometer
mb
20260502210004 18 264 9.7 29.0 0.00 0.00 0.00 36 1007.5
20260502204504 18 213 3.2 12.9 0.00 0.00 0.00 36 1007.6
20260502203218 18 222 4.8 17.7 0.00 0.00 0.00 35 1007.6
20260502201503 19 180 6.4 20.9 0.00 0.00 0.00 33 1008.0
20260502200003 19 199 6.4 19.3 0.00 0.00 0.00 33 1008.0
20260502194504 19 176 4.8 17.7 0.00 0.00 0.00 34 1008.4
20260502193003 19 158 4.8 16.1 0.00 0.00 0.00 34 1008.5
20260502191503 18 174 6.4 24.1 0.00 0.00 0.00 37 1008.9
20260502190220 17 138 6.4 19.3 0.00 0.00 0.00 38 1009.1
20260502184504 16 153 4.8 22.5 0.00 0.00 0.00 38 1009.6
20260502183003 17 136 8.0 27.4 0.00 0.00 0.00 37 1009.9
20260502181503 17 223 4.8 14.5 0.00 0.00 0.00 35 1010.1
20260502163003 15 191 3.2 14.5 0.00 0.00 0.00 38 1012.1
20260502161503 14 145 4.8 19.3 0.00 0.00 0.00 37 1012.4
20260502160218 13 142 4.8 17.7 0.00 0.00 0.00 38 1012.6
20260502151504 12 151 3.2 12.9 0.00 0.00 0.00 45 1013.4
20260502123004 -3 223 0.0 1.6 0.00 0.00 0.00 87 1015.6
20260502121503 -3 0 0.0 0.0 0.00 0.00 0.00 87 1015.7
20260502114718 -4 0 0.0 0.0 0.00 0.00 0.00 87 1016.0
20260502113004 -4 0 0.0 0.0 0.00 0.00 0.00 86 1016.0
20260502111503 -5 0 0.0 0.0 0.00 0.00 0.00 85 1016.1
20260502110004 -5 0 0.0 0.0 0.00 0.00 0.00 85 1016.1
20260502104503 -5 0 0.0 0.0 0.00 0.00 0.00 85 1016.2
20260502103004 -5 0 0.0 0.0 0.00 0.00 0.00 84 1016.3
20260502101504 -5 0 0.0 0.0 0.00 0.00 0.00 83 1016.3
20260502100218 -4 0 0.0 0.0 0.00 0.00 0.00 83 1016.5
20260502071503 -3 0 0.0 0.0 0.00 0.00 0.00 80 1017.4
20260502070003 -3 0 0.0 0.0 0.00 0.00 0.00 79 1017.6
20260502064504 -3 197 1.6 8.0 0.00 0.00 0.00 79 1017.7
20260502063003 -3 0 0.0 0.0 0.00 0.00 0.00 76 1017.6
20260502061504 -2 0 0.0 0.0 0.00 0.00 0.00 76 1017.6
20260502060219 -2 0 0.0 0.0 0.00 0.00 0.00 76 1017.7
20260502054503 -2 0 0.0 0.0 0.00 0.00 0.00 76 1017.8
20260502053004 -2 0 0.0 0.0 0.00 0.00 0.00 75 1017.8
20260502051504 -2 0 0.0 0.0 0.00 0.00 0.00 75 1017.9
20260502050004 -1 0 0.0 0.0 0.00 0.00 0.00 74 1018.0
20260502044504 -1 0 0.0 0.0 0.00 0.00 0.00 73 1018.1
20260502043218 -1 0 0.0 0.0 0.00 0.00 0.00 72 1018.1
20260502041504 -1 0 0.0 0.0 0.00 0.00 0.00 71 1018.1
20260502040005 0 0 0.0 0.0 0.00 0.00 0.00 69 1018.1
20260502034504 0 0 0.0 0.0 0.00 0.00 0.00 67 1018.2
20260502033003 0 0 0.0 0.0 0.00 0.00 0.00 67 1018.2
20260502031503 1 0 0.0 0.0 0.00 0.00 0.00 64 1018.2
20260502030003 1 0 0.0 0.0 0.00 0.00 0.00 62 1018.3
20260502024718 2 0 0.0 0.0 0.00 0.00 0.00 60 1018.3
20260502023003 3 0 0.0 0.0 0.00 0.00 0.00 59 1018.2
20260502021504 4 0 0.0 0.0 0.00 0.00 0.00 56 1018.1
20260502020004 5 0 0.0 0.0 0.00 0.00 0.00 53 1018.1
20260502014503 6 0 0.0 0.0 0.00 0.00 0.00 48 1018.0
20260502013217 7 0 0.0 0.0 0.00 0.00 0.00 45 1017.9
20260502011503 8 50 0.0 3.2 0.00 0.00 0.00 40 1017.9
20260502010004 9 58 1.6 6.4 0.00 0.00 0.00 40 1017.8
20260502004503 10 72 1.6 4.8 0.00 0.00 0.00 40 1017.8
20260502003004 10 6 3.2 11.3 0.00 0.00 0.00 38 1017.8
20260502001504 11 14 0.0 6.4 0.00 0.00 0.00 33 1017.7
20260502000004 12 360 1.6 6.4 0.00 0.00 0.00 32 1017.8
20260501234503 12 31 1.6 8.0 0.00 0.00 0.00 33 1017.8
20260501233218 12 350 4.8 14.5 0.00 0.00 0.00 31 1017.9
20260501231503 12 349 1.6 9.7 0.00 0.00 0.00 32 1017.9
20260501230003 12 297 3.2 16.1 0.00 0.00 0.00 31 1017.9
20260501224503 13 356 1.6 9.7 0.00 0.00 0.00 30 1018.0
20260501223004 13 321 4.8 14.5 0.00 0.00 0.00 29 1018.0
20260501221503 13 330 4.8 17.7 0.00 0.00 0.00 30 1018.1
20260501214717 13 328 6.4 17.7 0.00 0.00 0.00 28 1018.2
20260501213218 13 352 4.8 19.3 0.00 0.00 0.00 29 1018.3
20260501211504 13 274 8.0 24.1 0.00 0.00 0.00 29 1018.4